CZ-2C DEB, 40266

Orbit data source: Space-Track

CZ-2C DEB, 40266 is space debris in SSO originally from a launch on Sun, 28 Sep 2014 UTC launched from the Jiuquan Satellite Launch Center, China (JSC). Debris objects in space refer to the collection of defunct objects orbiting the Earth. Examples of debris include non-operational satellites, rocket bodies, and fragments generated from explosions, collisions, or faulty payload assembly.

Loading next visibility...
Identifier
40266, 2014-059F
Orbit
SSO
Country
Flag of CNCN / PRC
Related business
Manufacturer
CALT
Mission
Spacecraft
Bus & Motor
Unknown
Mass
1 kg wet, 1 kg dry
Launch date (UTC)
2014-09-28 (12 years ago)
Launch vehicle
Unknown
Launch site
Jiuquan Satellite Launch Center, China (JSC)
Object type
Payload
Rocket body
Debris
Shape & HBR
Cone, 0.1 m
Radar Cross Section
0.025 m², Medium (>0.1 m² and < 1m²)

Expand to show TLE details & history
Last TLE update: 2 days ago

TLE from 2 days ago
0 CZ-2C DEB
1 40266U 14059F   26171.45072672  .00000938  00000-0  30814-3 0  9996
2 40266  98.3547  80.2705 0158617 210.0564 149.1447 14.33719629609149
Epoch: 2026-06-20T10:49Z
TLE epoch observation values (Epoch: 2026-06-20T10:49:02.788Z)
Latitude
0.00002°
Longitude
9.34371°
Altitude
880.214 km
Speed
7.361 km/s
True Right ascension
05h 21m 04s
True Declination
0° 00' 00"
Sunlit
Object was in daylight at epoch
Visualization orbit readout
Latitude
Unknown
Longitude
Unknown
Altitude
Unknown
Speed
Unknown
Apparent Right ascension
Unknown
Apparent Declination
Unknown
Sunlit
N/A
Visualization observer readout
Local Sidereal Time
00:50:40
Azimuth
Unknown
Elevation
Unknown
Doppler factor
Unknown
Orbital elements
Apogee altitude
889.931 km
Perigee altitude
662.963 km
Semi-major axis
7,154.584 km
Eccentricity
0.01586
Inclination
98.3547°
RAAN
80.2705°
Arg. of periapsis
210.0564°
True anomaly
150.06125°
Mean anomaly
149.1447°
Eccentric anomaly
149.60453°
Mean motion
3.58647 °/min
Orbital period
100.38 mins
BSTAR
0.00030814
Loading maneuver chart data...
Computing Atmospheric mass density...
Loading historical data...
Loading historical data...
Loading historical data...
Loading historical data...
Loading historical data...
Loading historical data...
Loading historical data...
Other satellites on launch #59 in the year 2014 (2014-09-28 UTC)

Documentation

Showing up to 5 results
|